Tracking 22925 objects as of 6-May-2021
HD Live streaming from Space Station
objects crossing your sky now

THORAD AGENA D DEB

Track THORAD AGENA D DEB now!
10-day predictions


NORAD ID: 21721
Int'l Code: 1970-025QG
Perigee: 1,016.0 km
Apogee: 1,023.2 km
Inclination: 100.2 °
Period: 105.4 minutes
Semi major axis: 7390 km
RCS: 0.015 m2 (small)
Launch date: April 8, 1970
Source: United States (US)
Launch site: AIR FORCE WESTERN TEST RANGE (AFWTR)

Note: This is SATELLITE DEBRIS
aabbcc
Your satellite tracking list
Your tracking list is empty




NASA's NSSDC Master Catalog

Two Line Element Set (TLE):
1 21721U 70025QG  21125.00741764  .00000332  00000-0  45978-3 0  9991
2 21721 100.1622 322.8973 0004879 330.7028 184.6955 13.66405473468546
Source of the keplerian elements: AFSPC